{"data":{"norad_id":62040,"epoch":"2026-09-21T22:44:40.746048Z","epoch_age_seconds":60427,"freshness":"FRESH","line1":"1 62040U 24216J   26264.94769382  .00009562  00000+0  35647-3 0  9994","line2":"2 62040  42.9957 235.4934 0000465 326.5391  33.5431 15.27584838103806","mean_motion":15.27584838,"eccentricity":4.65e-5,"inclination_deg":42.9957,"raan_deg":235.4934,"arg_perigee_deg":326.5391,"mean_anomaly_deg":33.5431,"bstar":0.00035647,"rev_number":10380,"period_min":94.266450162292,"perigee_km":482.71556488559,"apogee_km":483.35365384526,"semimajor_km":6861.1716093654,"source":"CELESTRAK","updated_at":"2026-09-22T09:00:49.487852Z"}}